Погода в Читре

Панама     7°57′32″N   80°25′49″W
В апреле 2022 года жителям России запретили посещать сайт meteo.paraplan.net по решению Генеральной прокуратуры. Аудитория сайта уменьшилась в 10 раз. Владельцы сайта не видят смысла в поддержке погодного сервера в таких условиях. Сайт будет закрыт в октябре.
темп.,
°C
ветер,
м/с
пор.,
м/с
влажн.,
%
обл.,
%
осадки,
мм/ч
давл.,
гПа
погр.,
м
4 октября, вт
вт401:00+24з229162 0.9 101051
04:00+24зсз2292100 0.0 100956
07:00+24зсз2391100 0.0 1011119
10:00+28зсз227297 0.3 1012574
13:00+30с1162100 0.4 1009965
16:00+30св2166100 1.7 1007631
19:00+26з3383100 5.6 100964
22:00+25зюз3588100 0.2 1011112
5 октября, ср
ср501:00+24з3590100 0.2 1010131
04:00+24зсз349279 0.0 1009118
07:00+24зсз249164 0.0 1011141
10:00+28зсз337310 0.0 1012810
13:00+31сз126177 0.1 10091213
16:00+29вюв1172100 5.1 1008456
19:00+25в1188100 13.3 101022
22:00+24зсз3592100 4.6 1012150
6 октября, чт
чт601:00+24зсз3693100 5.0 1011200
04:00+23з349496 0.2 1009129
07:00+24з239153 0.2 1011118
10:00+28зсз117566 0.1 1013760
13:00+28в3376100 1.1 1010548
16:00+28всв337684 1.9 1008641
19:00+25вюв2285100 4.5 101196
22:00+24зсз2289100 1.1 101240
7 октября, пт
пт701:00+24зсз229399 3.4 101164
04:00+23з229399 0.0 101074
07:00+24з2392100 0.0 1012121
10:00+24з2391100 0.0 1013180
13:00+27з237747 0.1 1010563
16:00+29зюз126796 0.6 1008863
19:00+25ссз1185100 3.9 101027
22:00+25зсз1287100 3.1 101146
8 октября, сб
сб801:00+24зюз3693100 4.4 1010180
04:00+23з3693100 0.3 1009169
07:00+23з359295 0.3 1011172
10:00+26зюз348167 0.1 1012501
13:00+28зюз667555 3.8 10091058
16:00+27зюз688141 3.4 1008757
19:00+24зюз4990100 5.8 1009372
22:00+24з4893100 0.6 1011338